Location: Peterborough
(44.3091°N, 78.3197°W)
Time: 05:05:14
(UTC-04:00)

Tiros 1 - Pass Details

Date: 06 April 2023
Orbit: 627 x 661 km, 48.4° (Epoch: 09 June)

Event Time Altitude Azimuth Distance (km) Brightness Sun altitude
Rises 00:56:06 0° 202° (SSW) 2,939 - -39.1°
Reaches altitude 10° 00:58:50 10° 187° (S) 2,040 - -39.2°
Maximum altitude 01:02:27 22° 137° (SE) 1,413 - -39.2°
Drops below altitude 10° 01:06:06 10° 87° (E) 2,064 - -39.3°
Sets 01:08:52 0° 72° (ENE) 2,984 - -39.3°
